Total_Precipitation_Accumulation
0.29 0.57 1.09 1.40 1.91 2.36 2.01 1.58 1.01 0.74 0.75 0.83 0.75 0.72 0.91 1.12 1.64 2.90 3.00 2.71 1.83 1.72 2.06 2.21 2.12 1.84 1.73 1.72 1.86 1.82 1.76 1.84 2.02 2.09 2.17 2.25 2.33 2.32 2.30 2.36 2.62 2.91 3.15 3.27 3.29 3.27 3.26 3.22 3.19
0.49 0.91 1.16 1.39 2.12 2.33 1.94 1.47 0.93 0.74 0.64 0.67 0.71 0.66 0.86 1.02 1.17 1.92 2.43 2.18 1.41 1.27 1.54 1.66 1.80 1.71 1.61 1.49 1.59 1.67 1.61 1.67 1.87 2.18 2.40 2.46 2.59 2.58 2.58 2.67 2.82 3.00 3.01 3.13 3.18 3.13 3.01 3.01 2.98
0.58 0.86 1.12 1.47 1.67 1.68 1.42 1.04 0.64 0.53 0.45 0.49 0.60 0.55 0.84 1.34 1.31 1.71 1.93 1.67 1.27 1.16 1.28 1.52 1.50 1.41 1.48 1.46 1.53 1.63 1.70 1.73 1.76 2.05 2.37 2.60 2.81 2.87 2.92 3.02 3.13 3.18 3.00 2.91 2.97 2.97 2.72 2.76 2.82
0.76 0.97 0.98 1.03 1.02 0.93 0.74 0.64 0.47 0.43 0.41 0.39 0.50 0.72 1.19 1.35 1.30 1.45 1.40 1.27 1.01 1.00 1.05 1.21 1.43 1.43 1.46 1.46 1.49 1.49 1.63 1.79 1.91 2.15 2.45 2.66 2.89 3.07 3.22 3.21 3.28 3.25 3.03 2.93 2.90 2.83 2.68 2.74 2.83
0.91 1.07 1.06 0.75 0.60 0.66 0.58 0.46 0.38 0.42 0.37 0.41 0.52 0.96 1.65 1.63 1.20 1.12 1.12 1.03 0.89 0.85 1.00 1.15 1.38 1.47 1.48 1.42 1.47 1.53 1.62 1.86 2.05 2.13 2.28 2.43 2.63 2.97 3.09 3.08 3.11 2.99 2.84 2.77 2.78 2.80 2.68 2.65 2.77
0.78 0.95 0.87 0.52 0.42 0.49 0.45 0.37 0.35 0.33 0.34 0.46 0.64 1.00 1.71 1.71 1.38 1.29 1.29 1.13 1.05 0.87 0.86 1.08 1.32 1.46 1.47 1.43 1.52 1.62 1.81 2.02 2.17 2.11 2.13 2.24 2.47 2.73 2.74 2.72 2.72 2.67 2.70 2.71 2.75 2.76 2.61 2.49 2.76
0.97 0.77 0.52 0.33 0.31 0.36 0.37 0.32 0.34 0.31 0.38 0.56 0.73 1.13 1.63 1.86 1.60 1.41 1.49 1.56 1.34 1.10 1.01 1.08 1.17 1.23 1.34 1.46 1.58 1.84 2.06 2.20 2.21 2.08 2.08 2.27 2.39 2.44 2.39 2.45 2.48 2.53 2.56 2.62 2.65 2.58 2.46 2.43 2.62
0.51 0.49 0.36 0.21 0.20 0.29 0.26 0.26 0.26 0.31 0.43 0.50 0.68 1.18 1.70 1.69 1.56 1.52 1.67 1.83 1.77 1.43 1.35 1.24 1.26 1.28 1.22 1.42 1.76 1.99 2.18 2.30 2.29 2.24 2.32 2.48 2.56 2.47 2.51 2.46 2.52 2.57 2.67 2.75 2.85 2.81 2.62 2.55 2.56
0.32 0.34 0.29 0.18 0.15 0.19 0.18 0.23 0.27 0.24 0.27 0.44 0.65 1.00 1.18 1.14 1.28 1.51 1.76 1.99 2.19 1.98 1.70 1.53 1.37 1.40 1.50 1.54 1.71 2.17 2.43 2.45 2.44 2.67 2.87 3.01 2.93 2.69 2.83 2.66 2.96 3.02 3.06 3.12 3.25 3.16 2.89 2.74 2.65
0.29 0.25 0.16 0.09 0.08 0.09 0.13 0.19 0.26 0.24 0.42 0.68 0.82 0.95 0.90 1.06 1.19 1.48 1.74 1.92 2.08 2.24 1.82 1.68 1.49 1.46 1.54 1.70 2.13 2.52 2.37 2.49 2.75 3.05 3.20 3.44 3.38 3.29 2.82 3.10 3.48 3.77 4.05 4.06 4.04 3.85 3.43 2.89 2.66
0.20 0.15 0.08 0.05 0.04 0.05 0.12 0.13 0.19 0.24 0.59 1.05 1.20 1.22 1.16 1.12 1.29 1.59 1.90 2.03 1.95 2.05 1.87 1.83 1.84 1.91 1.82 1.97 2.28 2.59 2.60 2.77 2.92 3.00 3.19 3.41 3.14 3.05 3.17 3.51 3.83 4.12 4.33 4.27 4.39 4.46 3.80 3.33 3.19
0.09 0.06 0.05 0.04 0.04 0.05 0.10 0.12 0.16 0.26 0.57 0.85 1.13 1.12 1.28 1.26 1.40 1.70 2.08 2.31 2.37 2.54 2.32 2.19 2.25 2.28 2.29 2.24 2.42 2.57 2.56 2.72 2.89 3.01 3.01 3.14 3.31 3.39 3.54 3.94 3.93 4.10 4.24 4.61 4.38 4.66 4.31 3.83 3.47
0.06 0.05 0.05 0.05 0.05 0.05 0.10 0.19 0.19 0.30 0.42 0.61 0.88 0.92 1.00 1.31 1.72 2.14 2.57 2.64 2.84 3.14 3.13 2.88 2.60 2.49 2.57 2.76 2.76 2.59 2.73 2.89 2.98 3.18 3.16 3.12 3.44 3.64 3.75 3.87 4.09 3.80 3.85 4.32 4.52 4.33 4.52 4.53 4.15
0.05 0.05 0.05 0.07 0.07 0.08 0.12 0.25 0.32 0.42 0.49 0.55 0.83 1.09 1.15 1.51 1.86 2.47 3.18 3.15 3.00 3.28 3.40 3.14 2.97 2.87 2.96 3.25 3.36 3.21 3.05 3.35 3.35 3.28 3.20 3.28 3.53 3.95 4.16 4.08 4.17 3.92 3.70 3.92 4.18 4.21 4.89 4.74 4.58
0.08 0.09 0.09 0.11 0.13 0.16 0.22 0.45 0.58 0.57 0.52 0.62 0.93 1.27 1.53 1.69 2.03 2.41 2.86 3.28 3.46 3.56 3.46 3.40 3.36 3.33 3.53 3.66 3.61 3.39 3.32 3.22 3.32 3.42 3.45 3.45 3.44 3.89 4.14 4.33 4.29 4.03 3.77 4.02 4.18 4.40 4.69 4.46 4.33
0.10 0.14 0.18 0.18 0.19 0.20 0.31 0.76 0.70 0.57 0.57 0.89 1.09 1.45 1.79 1.87 2.14 2.56 2.97 3.56 3.85 3.84 3.83 3.83 3.64 3.79 4.02 4.11 3.97 3.81 3.68 3.51 3.33 3.28 3.47 3.53 3.63 3.88 4.13 4.05 3.97 4.07 3.99 4.25 4.50 4.62 4.70 4.61 4.44
0.18 0.20 0.23 0.23 0.23 0.20 0.27 0.55 0.66 0.60 0.80 1.09 1.34 1.68 2.00 2.26 2.72 3.23 3.51 3.63 3.99 4.32 4.47 4.52 4.46 4.38 4.41 4.43 4.32 4.36 4.36 4.14 3.79 3.64 3.69 3.77 3.69 3.69 3.92 3.91 4.04 4.11 4.11 4.21 3.86 4.46 4.51 4.61 4.46
0.21 0.19 0.23 0.27 0.23 0.23 0.33 0.49 0.61 0.67 0.90 1.33 1.73 2.00 2.27 2.69 3.19 3.55 3.81 4.15 4.28 4.55 5.07 5.09 4.97 5.01 5.10 5.10 4.81 4.82 4.62 4.36 4.20 4.15 4.28 4.06 3.85 3.66 3.89 3.90 4.04 4.06 4.17 4.25 4.24 4.52 4.47 4.32 4.27
0.15 0.18 0.23 0.27 0.23 0.25 0.43 0.65 0.71 0.87 1.16 1.49 1.86 2.11 2.45 2.80 3.15 3.58 3.66 3.89 4.21 4.82 5.31 5.59 5.69 5.64 5.42 5.15 4.80 4.62 4.64 4.63 4.37 4.12 3.96 3.83 3.70 3.75 4.14 4.02 4.39 4.28 4.06 4.03 4.12 4.39 4.31 4.04 4.11
0.15 0.19 0.23 0.27 0.23 0.24 0.45 0.69 0.84 1.11 1.43 1.49 1.68 1.84 2.04 2.47 2.80 3.14 3.32 3.39 3.81 4.42 4.88 5.09 4.92 4.95 4.82 4.62 4.57 4.55 4.83 4.55 4.26 4.09 3.94 3.61 3.57 3.67 3.70 4.11 4.08 4.11 4.23 4.14 4.09 4.30 4.14 3.75 3.95
0.13 0.14 0.18 0.26 0.26 0.33 0.51 0.94 1.12 1.28 1.41 1.43 1.52 1.69 1.81 2.10 2.41 2.75 2.89 3.02 3.26 3.38 3.67 3.89 4.11 4.14 4.09 4.11 4.08 4.19 4.44 4.29 4.16 4.02 3.91 3.51 3.32 3.30 3.46 3.64 3.84 4.18 4.04 4.07 4.15 4.06 4.01 3.77 3.74
0.12 0.11 0.12 0.18 0.29 0.48 0.63 1.28 1.49 1.40 1.44 1.53 1.51 1.48 1.72 2.04 2.07 2.18 2.41 2.57 2.85 3.03 3.24 3.34 3.45 3.62 3.70 3.82 3.74 3.61 3.52 3.53 3.56 3.63 3.58 3.55 3.37 3.26 3.28 3.40 3.60 3.79 3.58 3.65 3.35 3.47 3.78 3.95 3.68
0.09 0.09 0.11 0.22 0.36 0.50 0.60 1.02 1.47 1.70 1.75 1.53 1.44 1.32 1.52 1.68 1.63 1.59 1.77 1.93 2.21 2.46 2.69 2.84 2.99 3.15 3.41 3.54 3.48 3.46 3.25 3.26 3.35 3.41 3.43 3.42 3.34 3.25 3.18 3.20 3.28 3.32 3.18 3.26 3.19 3.43 3.42 3.44 3.45
0.07 0.12 0.21 0.39 0.60 0.86 0.72 0.89 1.38 1.68 1.90 1.64 1.37 1.27 1.38 1.35 1.32 1.46 1.62 1.75 1.91 2.21 2.39 2.51 2.67 2.78 3.00 3.16 3.26 3.35 3.32 3.23 3.20 3.18 3.18 3.16 3.17 3.07 2.98 2.90 2.96 2.99 2.99 3.03 3.09 3.25 3.15 3.20 3.36
0.09 0.20 0.63 1.06 1.38 1.35 0.88 0.92 1.32 1.30 1.30 1.35 1.28 1.29 1.31 1.24 1.19 1.23 1.34 1.49 1.67 1.92 2.11 2.18 2.31 2.42 2.50 2.61 2.82 3.01 3.01 3.02 2.86 2.78 2.84 2.84 2.65 2.57 2.68 2.58 2.71 2.75 2.80 2.84 2.96 3.06 3.05 3.19 3.35
0.13 0.22 0.70 1.12 1.18 1.16 0.97 1.24 1.62 1.31 1.19 1.12 1.18 1.26 1.24 1.11 1.09 1.16 1.24 1.27 1.37 1.59 1.85 1.93 2.04 2.15 2.29 2.35 2.48 2.63 2.65 2.65 2.49 2.57 2.58 2.51 2.27 2.20 2.41 2.54 2.56 2.55 2.58 2.67 2.97 2.81 2.89 3.13 3.17
0.20 0.23 0.32 0.62 0.72 0.89 1.07 1.39 1.62 1.29 1.21 1.32 1.40 1.37 1.31 1.06 0.95 0.99 0.98 1.01 1.06 1.19 1.38 1.52 1.76 1.93 2.04 2.13 2.25 2.30 2.27 2.35 2.33 2.43 2.55 2.39 2.33 2.18 2.25 2.30 2.42 2.54 2.69 2.88 3.09 2.92 3.03 3.30 3.20
0.19 0.20 0.27 0.53 0.79 0.98 1.06 1.47 1.81 1.71 1.50 1.41 1.47 1.32 1.06 0.91 0.82 0.77 0.75 0.77 0.85 0.97 1.13 1.35 1.52 1.56 1.68 1.90 2.06 1.99 2.21 2.29 2.29 2.32 2.23 2.21 2.26 2.23 2.11 2.08 2.17 2.28 2.42 2.64 2.83 2.73 2.88 3.14 3.13
0.21 0.25 0.34 0.51 0.58 0.84 1.21 1.45 1.39 1.39 1.29 1.32 1.29 1.12 0.91 0.81 0.78 0.74 0.73 0.77 0.81 0.87 1.05 1.27 1.52 1.66 1.66 1.76 1.94 2.04 2.11 2.22 2.25 2.17 2.06 2.10 2.18 2.20 2.11 2.09 2.13 2.14 2.11 2.20 2.38 2.39 2.66 2.72 2.76
0.19 0.22 0.32 0.50 0.50 0.56 0.87 1.17 0.82 0.85 0.85 0.93 0.97 0.85 0.82 0.81 0.76 0.80 0.85 0.82 0.84 0.95 1.12 1.32 1.50 1.68 1.76 1.93 2.19 2.32 2.22 2.19 2.22 2.15 2.02 1.92 1.88 1.97 2.07 2.12 2.06 1.96 2.03 2.19 2.20 2.25 2.49 2.59 2.55